COSMOS 2278

导读 | 豆包AI

COSMOS 2278是独联体(CIS)于1994年4月23日发射的“宇宙”系列卫星。该系列由苏联开创,大多为军事用途,命名统一模糊任务属性以提升保密性。作为冷战后航天继承产物,它延续了苏联保密传统,具体任务细节未对外公开。服役结束后已失效,目前作为空间碎片在轨道运行,是近地轨道众多退役航天资产之一。

基本信息
目录编号:
23087
目录名称:
COSMOS 2278
国际标识:
1994-023A
轨道中心:
EARTH
卫星名称:
COSMOS 2278
卫星全名:
--
卫星状态:
在轨 (已飞行11638 天)
发射日期:
1994-04-23 UTC
国别 :
俄罗斯(独联体) (CIS)
星等 :
--
轨道信息
数据来源 国际轨道数据 AOE轨道数据
星历时间 2026-03-04T03:09:39+0800
15小时前
查看轨道信息
2026-03-03T13:00:00+0800
1天前
查看轨道信息
半长轴 7222.574km 7222.572km
偏心率 0.0007656 0.0007277
轨道倾角 71.054° 71.054°
近地点辐角 25.225° 27.897°
升交点赤经 187.421° 188.655°
平近点角 334.924° 208.826°
近地点 838.907km 839.179km
远地点 849.967km 849.691km
周期 101.812分钟 101.812分钟
每日圈数 14.143757 14.143763
详细信息
使用方式:
暂无
2D轨道图
3D轨道图
轨道高度分析图
轨道倾角分析图
轨道综合分析图
查看轨道综合分析图